FW3819 Weather Reports


Display with metric or nautical units.
time (UTC)temp
F
wind
direction
speed
MPH
gust
MPH
rain 1hr
in
rain 24hr
in
rain mn
in
humidity
%
barometer
mb
20260906113901 61 54 0.0 1.0 0.00 0.00 0.00 92 1015.8
20260906113402 61 11 0.0 1.0 0.00 0.00 0.00 92 1015.7
20260906112901 61 11 0.0 1.0 0.00 0.00 0.00 92 1015.7
20260906112651 60 279 0.0 1.0 0.00 0.00 0.00 92 1015.6
20260906112154 60 143 0.0 1.0 0.00 0.00 0.00 92 1015.7
20260906111402 60 117 0.0 1.0 0.00 0.00 0.00 92 1015.6
20260906110901 61 326 0.0 1.0 0.00 0.00 0.00 92 1015.6
20260906110403 61 54 0.0 1.0 0.00 0.00 0.00 92 1015.7
20260906105903 61 125 0.0 1.0 0.00 0.00 0.00 92 1015.6
20260906105403 61 188 0.0 1.0 0.00 0.00 0.00 92 1015.5
20260906105158 61 11 0.0 1.0 0.00 0.00 0.00 92 1015.5
20260906104401 61 100 0.0 1.0 0.00 0.00 0.00 92 1015.3
20260906103904 61 11 0.0 3.0 0.00 0.00 0.00 91 1015.2
20260906103700 61 54 0.0 3.0 0.00 0.00 0.00 91 1015.2
20260906102902 61 100 0.0 1.0 0.00 0.00 0.00 91 1015.1
20260906102401 61 234 0.0 1.0 0.00 0.00 0.00 92 1015.1
20260906101901 61 28 0.0 1.0 0.00 0.00 0.00 92 1015.0
20260906101402 61 326 0.0 1.0 0.00 0.00 0.00 91 1015.0
20260906100902 61 11 0.0 1.0 0.00 0.00 0.00 91 1014.9
20260906100401 62 54 0.0 1.0 0.00 0.00 0.00 91 1014.8
20260906095903 62 100 0.0 1.0 0.00 0.00 0.00 91 1014.8
20260906095403 62 143 0.0 1.0 0.00 0.00 0.00 91 1014.7
20260906095157 62 54 0.0 1.0 0.00 0.00 0.00 91 1014.7
20260906094402 62 54 0.0 1.0 0.00 0.00 0.00 91 1014.6
20260906093903 62 100 0.0 1.0 0.00 0.00 0.00 91 1014.4
20260906093402 62 279 0.0 1.0 0.00 0.00 0.00 91 1014.5
20260906092904 62 11 0.0 1.0 0.00 0.00 0.00 91 1014.5
20260906092403 62 325 0.0 1.0 0.00 0.00 0.00 91 1014.5
20260906091904 62 54 0.0 3.0 0.00 0.00 0.00 91 1014.3
20260906091403 62 261 0.0 3.0 0.00 0.00 0.00 91 1014.3
20260906090901 62 260 0.0 1.0 0.00 0.00 0.00 91 1014.3
20260906090401 62 11 0.0 1.0 0.00 0.00 0.00 91 1014.1
20260906085901 62 326 0.0 1.0 0.00 0.00 0.00 91 1014.1
20260906085401 63 326 0.0 1.0 0.00 0.00 0.00 91 1014.2
20260906084901 63 326 0.0 1.0 0.00 0.00 0.00 91 1014.1
20260906084651 63 11 0.0 1.0 0.00 0.00 0.00 91 1014.2
20260906083900 63 279 0.0 1.0 0.00 0.00 0.00 91 1014.1
20260906083401 63 54 0.0 1.0 0.00 0.00 0.00 91 1014.1
20260906083153 63 326 0.0 1.0 0.00 0.00 0.00 91 1014.0
20260906082401 63 279 0.0 1.0 0.00 0.00 0.00 91 1014.1
20260906081903 63 54 0.0 3.0 0.00 0.00 0.00 90 1014.1
20260906081402 63 268 0.0 3.0 0.00 0.00 0.00 90 1014.1
20260906080904 64 279 0.0 1.0 0.00 0.00 0.00 90 1014.0
20260906080403 64 326 0.0 1.0 0.00 0.00 0.00 90 1014.0
20260906075901 64 11 0.0 1.0 0.00 0.00 0.00 90 1014.0
20260906075402 64 54 0.0 1.0 0.00 0.00 0.00 90 1014.0
20260906074902 64 28 0.0 1.0 0.00 0.00 0.00 90 1014.1
20260906074653 64 326 0.0 1.0 0.00 0.00 0.00 90 1014.0
20260906073902 64 11 0.0 1.0 0.00 0.00 0.00 90 1013.9
20260906073401 64 11 0.0 3.0 0.00 0.00 0.00 90 1014.0
20260906072901 64 143 0.0 3.0 0.00 0.00 0.00 90 1014.0
20260906072403 65 11 0.0 1.0 0.00 0.00 0.00 90 1014.0
20260906071902 65 260 0.0 1.0 0.00 0.00 0.00 90 1014.0
20260906071403 65 326 0.0 1.0 0.00 0.00 0.00 90 1014.0
20260906070902 65 11 0.0 1.0 0.00 0.00 0.00 90 1014.0
20260906070651 65 326 0.0 1.0 0.00 0.00 0.00 90 1013.8
20260906065901 65 326 0.0 1.0 0.00 0.00 0.00 90 1013.8
20260906065405 65 54 0.0 1.0 0.00 0.00 0.00 90 1013.9
20260906064950 65 11 0.0 1.0 0.00 0.00 0.00 89 1013.9
20260906064934 65 279 0.0 1.0 0.00 0.00 0.00 89 1013.9
20260906063904 65 11 0.0 1.0 0.00 0.00 0.00 89 1013.8
20260906063403 66 54 0.0 1.0 0.00 0.00 0.00 89 1013.8
20260906062901 66 353 0.0 1.0 0.00 0.00 0.00 89 1013.9
20260906062453 66 54 0.0 1.0 0.00 0.00 0.00 89 1014.0
20260906062436 66 82 0.0 1.0 0.00 0.00 0.00 89 1014.0
20260906061655 66 11 0.0 1.0 0.00 0.00 0.00 89 1013.9
20260906060901 66 54 0.0 1.0 0.00 0.00 0.00 89 1013.9
20260906060402 67 326 0.0 1.0 0.00 0.00 0.00 88 1013.9
20260906055903 67 11 0.0 1.0 0.00 0.00 0.00 88 1013.8
20260906055401 67 11 0.0 1.0 0.00 0.00 0.00 88 1013.7
20260906054902 67 353 0.0 1.0 0.00 0.00 0.00 88 1013.8
20260906054402 67 353 0.0 1.0 0.00 0.00 0.00 88 1013.9
20260906053901 67 279 0.0 1.0 0.00 0.00 0.00 88 1013.9
20260906053652 67 28 0.0 1.0 0.00 0.00 0.00 88 1013.9
20260906052903 68 54 0.0 1.0 0.00 0.00 0.00 88 1013.8
20260906052403 68 326 0.0 1.0 0.00 0.00 0.00 88 1013.9
20260906051901 68 326 0.0 1.0 0.00 0.00 0.00 87 1013.9
20260906051403 68 11 0.0 1.0 0.00 0.00 0.00 87 1014.0
20260906050902 68 326 0.0 1.0 0.00 0.00 0.00 87 1013.9
20260906050401 69 353 0.0 1.0 0.00 0.00 0.00 86 1014.0
20260906045903 69 11 0.0 1.0 0.00 0.00 0.00 86 1014.0
20260906045654 69 100 0.0 1.0 0.00 0.00 0.00 86 1014.2
20260906044901 69 28 0.0 1.0 0.00 0.00 0.00 86 1014.3
20260906044403 69 54 0.0 1.0 0.00 0.00 0.00 86 1014.4
20260906043901 69 28 0.0 1.0 0.00 0.00 0.00 86 1014.5
20260906043401 70 11 0.0 1.0 0.00 0.00 0.00 85 1014.5
20260906042902 70 54 0.0 1.0 0.00 0.00 0.00 85 1014.6
20260906042650 70 279 0.0 1.0 0.00 0.00 0.00 85 1014.6
20260906041858 70 54 0.0 1.0 0.00 0.00 0.00 85 1014.6
20260906041352 71 11 0.0 1.0 0.00 0.00 0.00 84 1014.5
20260906040850 71 54 0.0 1.0 0.00 0.00 0.00 84 1014.5
20260906040716 71 11 0.0 1.0 0.00 0.00 0.00 84 1014.4
20260906040406 71 11 0.0 1.0 0.00 0.00 0.00 84 1014.5
20260906035331 71 11 0.0 1.0 0.00 0.00 0.00 84 1014.5
20260906034829 71 11 0.0 1.0 0.00 0.00 0.00 84 1014.6
20260906034330 71 37 0.0 1.0 0.00 0.00 0.00 84 1014.5
20260906033830 71 54 0.0 1.0 0.00 0.00 0.00 83 1014.5
20260906033329 72 11 0.0 1.0 0.00 0.00 0.00 83 1014.6
20260906032829 72 11 0.0 3.0 0.00 0.00 0.00 83 1014.6
20260906032330 72 260 0.0 3.0 0.00 0.00 0.00 82 1014.6
20260906031829 72 279 0.0 1.0 0.00 0.00 0.00 82 1014.6
20260906031329 72 326 0.0 1.0 0.00 0.00 0.00 82 1014.6
20260906030830 72 11 0.0 0.0 0.00 0.00 0.00 81 1014.7
20260906030330 72 11 0.0 0.0 0.00 0.00 0.00 81 1014.5
20260906025832 72 11 0.0 3.0 0.00 0.00 0.00 81 1014.4
20260906025621 72 279 0.0 3.0 0.00 0.00 0.00 81 1014.3
20260906024829 72 289 0.0 1.0 0.00 0.00 0.00 81 1014.4
20260906024329 72 143 0.0 1.0 0.00 0.00 0.00 81 1014.4
20260906023830 72 11 0.0 1.0 0.00 0.00 0.00 80 1014.4
20260906023623 72 234 0.0 1.0 0.00 0.00 0.00 81 1014.4
20260906023124 72 54 0.0 1.0 0.00 0.00 0.00 81 1014.3
20260906022329 73 54 0.0 1.0 0.00 0.00 0.00 81 1014.3
20260906021830 73 326 0.0 1.0 0.00 0.00 0.00 80 1014.2
20260906021330 73 279 0.0 1.0 0.00 0.00 0.00 80 1014.2
20260906020830 73 54 0.0 1.0 0.00 0.00 0.00 80 1014.2
20260906020616 73 54 0.0 1.0 0.00 0.00 0.00 80 1014.4
20260906015830 73 54 0.0 1.0 0.00 0.00 0.00 80 1014.3
20260906015329 73 54 0.0 1.0 0.00 0.00 0.00 79 1014.3
20260906014829 73 54 0.0 3.0 0.00 0.00 0.00 79 1014.2
20260906014329 73 11 0.0 3.0 0.00 0.00 0.00 80 1014.0
20260906013829 73 100 0.0 1.0 0.00 0.00 0.00 80 1014.1
20260906013330 73 234 0.0 1.0 0.00 0.00 0.00 80 1013.9
20260906012831 73 11 0.0 1.0 0.00 0.00 0.00 80 1013.9
20260906012329 73 353 0.0 3.0 0.00 0.00 0.00 79 1013.8
20260906011831 74 54 0.0 3.0 0.00 0.00 0.00 79 1013.8
20260906011330 74 54 0.0 1.0 0.00 0.00 0.00 79 1013.7
20260906010829 74 11 0.0 1.0 0.00 0.00 0.00 79 1013.7
20260906010328 74 143 0.0 1.0 0.00 0.00 0.00 78 1013.6
20260906005828 74 11 0.0 3.0 0.00 0.00 0.00 78 1013.5
20260906005332 75 54 1.0 3.0 0.00 0.00 0.00 77 1013.5
20260906004831 75 11 1.0 1.0 0.00 0.00 0.00 76 1013.5
20260906004613 75 11 0.0 1.0 0.00 0.00 0.00 76 1013.4
20260906003829 76 28 0.0 1.0 0.00 0.00 0.00 75 1013.4
20260906003329 76 28 0.0 1.0 0.00 0.00 0.00 73 1013.4
20260906002832 76 11 0.0 1.0 0.00 0.00 0.00 74 1013.3
20260906002330 76 54 0.0 1.0 0.00 0.00 0.00 73 1013.3
20260906001831 77 54 0.0 1.0 0.00 0.00 0.00 72 1013.3
20260906001330 77 28 0.0 1.0 0.00 0.00 0.00 72 1013.3
20260906000829 77 11 0.0 1.0 0.00 0.00 0.00 71 1013.2
20260906000333 78 54 0.0 1.0 0.00 0.00 0.00 70 1013.2
20260906000120 78 82 0.0 1.0 0.00 0.00 0.00 69 1013.1
20260905235331 78 326 0.0 1.0 0.00 0.00 0.00 69 1013.1
20260905234829 78 11 0.0 1.0 0.00 0.00 0.00 69 1013.1
20260905234329 79 143 0.0 1.0 0.00 0.00 0.00 68 1013.0
20260905233831 79 100 0.0 1.0 0.00 0.00 0.00 66 1012.9
20260905233328 79 54 0.0 1.0 0.00 0.00 0.00 66 1012.8
20260905232830 79 100 0.0 1.0 0.00 0.00 0.00 66 1012.7
20260905232329 79 28 0.0 3.0 0.00 0.00 0.00 65 1012.7
20260905231829 80 54 1.0 3.0 0.00 0.00 0.00 65 1012.7
20260905231330 80 82 0.0 3.0 0.00 0.00 0.00 64 1012.7
20260905230829 80 82 0.0 3.0 0.00 0.00 0.00 63 1012.6
20260905230432 80 143 0.0 3.0 0.00 0.00 0.00 63 1012.6
20260905230409 80 11 0.0 3.0 0.00 0.00 0.00 63 1012.6
20260905225330 81 11 0.0 3.0 0.00 0.00 0.00 64 1012.6
20260905225129 81 143 0.0 1.0 0.00 0.00 0.00 63 1012.6
20260905224331 81 54 0.0 1.0 0.00 0.00 0.00 62 1012.5
20260905223830 81 11 0.0 3.0 0.00 0.00 0.00 63 1012.4
20260905223329 81 82 1.0 3.0 0.00 0.00 0.00 62 1012.4
20260905223125 81 11 1.0 3.0 0.00 0.00 0.00 62 1012.5
20260905222330 82 11 0.0 3.0 0.00 0.00 0.00 63 1012.5
20260905221829 82 11 0.0 3.0 0.00 0.00 0.00 62 1012.4
20260905221329 82 100 1.0 3.0 0.00 0.00 0.00 61 1012.4
20260905220829 82 326 1.0 3.0 0.00 0.00 0.00 61 1012.4
20260905220329 82 41 1.0 3.0 0.00 0.00 0.00 62 1012.3
20260905215830 82 326 1.0 3.0 0.00 0.00 0.00 62 1012.3
20260905215330 81 21 1.0 4.0 0.00 0.00 0.00 61 1012.3
20260905214830 81 54 1.0 4.0 0.00 0.00 0.00 62 1012.2
20260905214330 81 82 1.0 5.0 0.00 0.00 0.00 62 1012.2
20260905213830 81 46 1.0 5.0 0.00 0.00 0.00 63 1012.2
20260905213332 81 67 1.0 5.0 0.00 0.00 0.00 64 1012.1
20260905212830 81 100 1.0 5.0 0.00 0.00 0.00 64 1012.0
20260905212329 81 11 1.0 4.0 0.00 0.00 0.00 62 1012.0
20260905211823 81 54 1.0 4.0 0.00 0.00 0.00 63 1011.8
20260905211607 81 37 1.0 3.0 0.00 0.00 0.00 63 1011.9
20260905211103 81 54 1.0 3.0 0.00 0.00 0.00 63 1011.7
20260905210308 82 54 0.0 3.0 0.00 0.00 0.00 63 1011.8
20260905210103 82 326 1.0 3.0 0.00 0.00 0.00 63 1011.8
20260905205308 82 326 1.0 4.0 0.00 0.00 0.00 63 1011.8
20260905204807 82 0 1.0 4.0 0.00 0.00 0.00 63 1011.9
20260905204307 82 28 1.0 3.0 0.00 0.01 0.00 63 1011.8
20260905203804 82 73 1.0 3.0 0.00 0.01 0.00 64 1011.9
20260905203304 82 54 1.0 4.0 0.00 0.01 0.00 64 1011.8
20260905202806 82 54 1.0 5.0 0.00 0.01 0.00 63 1011.9
20260905202306 82 37 1.0 5.0 0.00 0.01 0.00 64 1011.8
20260905201803 83 61 1.0 4.0 0.00 0.01 0.00 65 1011.9
20260905201302 83 296 1.0 5.0 0.00 0.01 0.00 64 1011.8
20260905200802 83 0 1.0 5.0 0.00 0.01 0.00 64 1011.9
20260905200303 83 11 1.0 7.0 0.00 0.01 0.00 64 1011.9
20260905195804 83 0 2.0 14.0 0.00 0.01 0.00 62 1011.9
20260905195306 83 338 2.0 14.0 0.00 0.01 0.00 62 1012.0
20260905194802 83 265 2.0 7.0 0.00 0.01 0.00 61 1012.0
20260905194302 84 25 3.0 14.0 0.00 0.01 0.00 61 1012.0
20260905194053 84 312 2.0 14.0 0.00 0.01 0.00 61 1012.2
20260905193600 84 261 1.0 7.0 0.00 0.01 0.00 61 1012.2
20260905192801 83 28 2.0 11.0 0.00 0.01 0.00 62 1012.2
20260905192553 84 143 2.0 11.0 0.00 0.01 0.00 62 1012.1
20260905191801 83 326 2.0 7.0 0.00 0.01 0.00 62 1012.1
20260905191301 84 0 1.0 4.0 0.00 0.01 0.00 62 1012.2
20260905190801 83 291 2.0 7.0 0.00 0.01 0.00 62 1012.2
20260905190302 83 41 2.0 7.0 0.00 0.01 0.00 66 1012.2
20260905185802 83 345 2.0 5.0 0.00 0.01 0.00 65 1012.1
20260905185305 82 54 1.0 4.0 0.00 0.01 0.00 67 1012.3
20260905184801 82 143 1.0 7.0 0.00 0.01 0.00 66 1012.4
20260905184301 82 350 1.0 7.0 0.00 0.01 0.00 66 1012.4
20260905184057 82 326 1.0 4.0 0.00 0.01 0.00 68 1012.3
20260905183353 81 54 1.0 7.0 0.00 0.01 0.00 68 1012.5
20260905183335 81 21 1.0 3.0 0.00 0.01 0.00 68 1012.3
20260905182305 81 21 1.0 7.0 0.00 0.01 0.00 68 1012.6
20260905182057 81 82 1.0 5.0 0.00 0.01 0.00 70 1012.6
20260905181554 80 28 1.0 5.0 0.00 0.01 0.00 69 1012.7
20260905180759 80 279 2.0 8.0 0.00 0.01 0.00 70 1012.6
20260905180254 80 305 2.0 8.0 0.00 0.01 0.00 70 1012.6
20260905175747 80 279 2.0 7.0 0.00 0.01 0.00 71 1012.7
20260905175248 80 234 2.0 7.0 0.00 0.01 0.00 72 1012.9
20260905174747 80 353 1.0 4.0 0.00 0.01 0.00 71 1013.0
20260905174248 81 279 1.0 7.0 0.00 0.01 0.00 72 1013.1
20260905174042 81 246 1.0 7.0 0.00 0.01 0.00 71 1013.0
20260905173248 81 279 1.0 5.0 0.00 0.01 0.00 70 1013.1
20260905172747 81 256 1.0 5.0 0.00 0.01 0.00 70 1013.1
20260905172341 81 100 1.0 4.0 0.00 0.01 0.00 71 1013.2
20260905172326 81 279 1.0 4.0 0.00 0.01 0.00 71 1013.1
20260905171246 80 143 1.0 4.0 0.00 0.01 0.00 73 1013.3
20260905170745 80 279 1.0 4.0 0.00 0.01 0.00 73 1013.4
20260905170244 80 73 2.0 8.0 0.00 0.01 0.00 72 1013.3
20260905165744 80 54 2.0 8.0 0.00 0.01 0.00 71 1013.4
20260905165243 80 251 2.0 8.0 0.00 0.01 0.00 71 1013.5
20260905165036 80 265 2.0 8.0 0.00 0.01 0.00 71 1013.3
20260905164536 80 194 2.0 5.0 0.00 0.01 0.00 73 1013.3
20260905164037 80 223 2.0 5.0 0.00 0.01 0.00 73 1013.4
20260905163242 80 210 1.0 5.0 0.00 0.01 0.00 73 1013.3
20260905162742 80 234 2.0 5.0 0.00 0.01 0.00 74 1013.4
20260905162239 80 171 2.0 9.0 0.00 0.01 0.00 73 1013.5
20260905162032 80 198 2.0 9.0 0.00 0.01 0.00 72 1013.6
20260905161530 80 242 1.0 5.0 0.00 0.01 0.00 74 1013.8
20260905160738 80 11 1.0 5.0 0.00 0.01 0.00 74 1013.9
20260905160238 80 11 1.0 7.0 0.00 0.01 0.00 74 1013.8
20260905160027 80 67 1.0 7.0 0.00 0.01 0.00 73 1013.9
20260905155238 80 340 1.0 5.0 0.00 0.01 0.00 73 1013.8
20260905154739 79 279 2.0 9.0 0.00 0.01 0.00 75 1013.8
20260905154239 79 268 2.0 9.0 0.00 0.01 0.00 74 1013.8
20260905153737 79 301 2.0 7.0 0.00 0.01 0.00 74 1013.9
20260905153239 79 215 2.0 8.0 0.00 0.01 0.00 74 1014.0
20260905152738 79 305 2.0 8.0 0.00 0.01 0.00 75 1014.0
20260905152239 78 248 1.0 7.0 0.00 0.01 0.00 76 1014.1
20260905151737 78 301 2.0 7.0 0.00 0.01 0.00 75 1014.4
20260905151238 78 246 3.0 8.0 0.00 0.01 0.00 74 1014.5
20260905150737 78 241 2.0 8.0 0.00 0.01 0.00 75 1014.5
20260905150240 78 248 1.0 4.0 0.00 0.01 0.00 76 1014.4
20260905145739 78 143 1.0 4.0 0.00 0.01 0.00 75 1014.3
20260905145239 78 268 1.0 3.0 0.00 0.01 0.00 75 1014.3
20260905144738 78 345 1.0 3.0 0.00 0.01 0.00 75 1014.1
20260905144238 78 37 1.0 3.0 0.00 0.01 0.00 76 1014.0
20260905143740 78 54 1.0 3.0 0.00 0.01 0.00 77 1014.0
20260905143234 77 54 0.0 3.0 0.00 0.01 0.00 77 1013.9
20260905142734 77 54 1.0 3.0 0.00 0.01 0.00 77 1013.9
20260905142234 77 296 1.0 4.0 0.00 0.01 0.00 77 1013.9
20260905141735 77 296 1.0 4.0 0.00 0.01 0.00 78 1013.7
20260905141235 76 234 1.0 4.0 0.00 0.01 0.00 79 1013.6
20260905140734 76 18 2.0 5.0 0.00 0.01 0.00 80 1013.3
20260905140235 75 28 2.0 7.0 0.00 0.01 0.00 81 1013.2
20260905135735 74 37 2.0 7.0 0.00 0.01 0.00 85 1013.2
20260905135235 73 357 2.0 5.0 0.00 0.01 0.00 89 1013.1
20260905134730 73 326 2.0 5.0 0.00 0.01 0.00 92 1013.0
20260905134231 73 54 1.0 5.0 0.00 0.01 0.00 93 1013.2
20260905133729 73 37 1.0 3.0 0.00 0.01 0.00 94 1013.3
20260905133229 73 11 1.0 5.0 0.00 0.01 0.00 94 1013.2
20260905132730 73 41 1.0 5.0 0.00 0.01 0.00 94 1013.2
20260905132231 73 54 1.0 4.0 0.00 0.01 0.00 95 1013.3
20260905132023 73 54 1.0 4.0 0.00 0.01 0.00 95 1013.4
20260905131232 73 54 1.0 4.0 0.00 0.01 0.00 95 1013.4
20260905130732 73 284 1.0 7.0 0.00 0.01 0.00 95 1013.3
20260905130232 72 251 1.0 7.0 0.00 0.01 0.00 95 1013.3
20260905125731 72 11 1.0 5.0 0.00 0.01 0.00 95 1013.3
20260905125231 72 296 1.0 4.0 0.00 0.01 0.00 95 1013.3
20260905125024 72 296 1.0 4.0 0.00 0.01 0.00 95 1013.3
20260905124230 72 279 0.0 3.0 0.00 0.01 0.00 95 1013.3
20260905123729 72 279 0.0 1.0 0.00 0.01 0.00 95 1013.2
20260905123229 71 11 0.0 1.0 0.00 0.01 0.00 95 1013.2
20260905122730 71 54 1.0 3.0 0.00 0.01 0.00 95 1013.2
20260905122229 71 326 1.0 3.0 0.00 0.01 0.00 95 1013.1
20260905121727 71 205 1.0 3.0 0.00 0.01 0.00 95 1013.2
20260905121222 71 54 0.0 3.0 0.00 0.01 0.00 95 1013.1
20260905120718 71 143 0.0 1.0 0.00 0.01 0.00 95 1013.2
20260905120210 70 143 0.0 1.0 0.00 0.01 0.00 95 1013.1
20260905115702 70 11 0.0 1.0 0.00 0.01 0.00 94 1013.0
20260905115206 70 82 1.0 3.0 0.00 0.01 0.00 94 1012.9
20260905114706 70 54 1.0 4.0 0.00 0.01 0.00 94 1012.9
20260905114501 69 249 0.0 4.0 0.00 0.01 0.00 94 1012.9